Location: Franzen
(48.6167°N, 15.3833°E)
Time: 13:04:20
(UTC+00:00)

ARIANE 5 R/B - Pass Details

Date: 05 August 2021
Orbit: 622 x 654 km, 98.1° (Epoch: 23 September)

Event Time Altitude Azimuth Distance (km) Brightness Sun altitude
Exits shadow 21:31:52 14° 231° (SW) 1,772 4.7 -21.5°
Maximum altitude 21:34:07 20° 268° (W) 1,485 4.7 -21.6°
Drops below altitude 10° 21:37:23 10° 316° (NW) 2,030 6.2 -21.9°
Sets 21:40:06 0° 333° (NNW) 2,938 7.5 -22.0°
